Zurück zum Katalog

STARLINK-2155

AktivKommunikationVLEO
NORAD 48557·PAYLOAD·🇺🇸 United States

Gestartet May 15, 2021 von Cape Canaveral Space Force Station

Loading…

Nächste Überflüge (nächste 24 Stunden)

TLE

AktuellSource: CelesTrak SupGP

Epoche: Sep 14, 2026, 20:51 UTC

1 48557C 21041E   26257.86923611 -.00033403  00000+0 -10740-2 0  2570
2 48557  53.1574 326.4549 0001048  92.7297 204.1054 15.31722485    13

Verfolge STARLINK-2155 in Echtzeit mit AllMySat

Download on the App Store